Location: Unspecified
(0.0000°N, 0.0000°E)
Time: 23:50:50
(UTC+00:00)

Vanguard 2 Rocket - Visible Passes

Search period start: 19 November 2019 00:00
Search period end: 29 November 2019 00:00
Orbit: 554 x 3326 km, 32.9° (Epoch: 17 November)

Date Brightness Start Highest point End Pass type
(mag) Time Alt. Az. Time Alt. Az. Time Alt. Az.
19 Nov 9.9 05:00:43 10° NNE 05:03:58 12° NE 05:07:46 10° NE visible
19 Nov 8.4 18:51:55 10° SW 19:01:06 32° SSE 19:04:50 20° ESE visible
19 Nov 9.3 21:08:25 10° WSW 21:10:39 19° WSW 21:10:39 19° WSW visible
20 Nov 7.4 20:06:55 10° SW 20:14:39 64° SW 20:14:39 64° SW visible
21 Nov 9.6 05:12:22 10° N 05:18:24 20° NE 05:26:49 10° E visible
21 Nov 7.7 19:05:19 10° SW 19:15:55 56° SSE 19:18:39 35° E visible
21 Nov 9.7 21:23:46 10° W 21:24:29 12° W 21:24:29 12° W visible
22 Nov 8.8 18:03:32 10° SW 18:15:25 40° SSE 18:22:23 10° E visible
22 Nov 8.0 20:21:24 10° WSW 20:28:29 44° WNW 20:28:29 44° WNW visible
23 Nov 7.4 19:19:15 10° SW 19:30:18 86° NW 19:32:31 48° NE visible
24 Nov 9.4 04:27:54 10° N 04:32:28 17° NE 04:38:31 10° ENE visible
24 Nov 8.2 18:17:05 10° SW 18:30:11 64° SSE 18:36:32 15° ENE visible
24 Nov 8.9 20:36:48 10° W 20:42:22 25° WNW 20:42:22 25° WNW visible
25 Nov 7.8 19:33:49 10° WSW 19:44:19 51° NW 19:46:24 40° N visible
26 Nov 9.1 04:40:32 10° NNW 04:46:24 28° NE 04:55:31 10° E visible
26 Nov 8.0 18:31:06 10° WSW 18:44:29 82° NW 18:50:25 18° NE visible
26 Nov 9.5 20:53:40 10° WNW 20:56:15 14° NW 20:56:15 14° NW visible
27 Nov 9.2 03:43:54 10° NNE 03:46:47 13° NE 03:50:33 10° ENE visible
27 Nov 8.6 19:49:15 10° W 19:58:07 30° NW 20:00:17 26° NNW visible
28 Nov 8.5 04:53:53 10° NNW 05:00:12 46° NE 05:11:10 10° ESE visible
28 Nov 8.5 18:45:43 10° WSW 18:58:25 52° NW 19:04:18 17° NNE visible
